Regional Weather Roundup
Issued by NWS

Home | Current Version | Previous Version | Graphics & Text | Print | Product List | Glossary On
Versions: 1 2 3 4 5 6 7 8 9 10 11 12 13 14 15 16 17 18 19 20 21 22 23 24 25 26 27 28 29 30 31 32 33 34 35 36 37 38 39 40 41 42 43 44 45 46 47 48 49 50
000
ASUS43 KLOT 290610
RWRIL

ILLINOIS REGIONAL WEATHER ROUNDUP
NATIONAL WEATHER SERVICE CHICAGO/ROMEOVILLE IL
100 AM CDT TUE JUL 29 2014

NOTE: "FAIR" INDICATES FEW OR NO CLOUDS BELOW 12,000 FEET WITH NO
SIGNIFICANT WEATHER AND/OR OBSTRUCTIONS TO VISIBILITY.

* THESE STATIONS ARE NOT UNDER NWS QUALITY CONTROL. THEY ALSO MAY NOT
  REPORT WEATHER SUCH AS PRECIPITATION OR FOG.

ILZ001-002-007-009-015-016-024-290700-
NORTHWEST ILLINOIS

CITY           SKY/WX    TMP DP  RH WIND       PRES   REMARKS
MOLINE         CLEAR     56  53  90 SW3       30.12R
6HR MIN TEMP:  55; 6HR MAX TEMP:  72;

STERLING*      CLEAR     55  50  82 NW5       30.10S
SAVANNA*       CLEAR     55  53  92 CALM      30.11S
$$

ILZ003-004-008-010-011-017-018-290700-
NORTH CENTRAL ILLINOIS

CITY           SKY/WX    TMP DP  RH WIND       PRES   REMARKS
ROCKFORD       MOCLDY    62  51  67 NW9       30.09F
6HR MIN TEMP:  61; 6HR MAX TEMP:  71;

FREEPORT*      CLEAR     56  52  87 W5        30.12R
ROCHELLE*      CLEAR     57  52  82 W5        30.09S
DE KALB*       MOCLDY    59  52  76 NW8       30.08S
PERU*          CLEAR     59  53  81 NW8       30.10S
$$

ILZ005-006-012>014-019>023-290700-
NORTHEAST ILLINOIS

CITY           SKY/WX    TMP DP  RH WIND       PRES   REMARKS
CHICAGO-OHARE  MOCLDY    63  51  65 NW3       30.05S
6HR MIN TEMP:  60; 6HR MAX TEMP:  69;

CHICAGO-MIDWAY CLOUDY    64  52  64 S3        30.05S
6HR MIN TEMP:  63; 6HR MAX TEMP:  70;

AURORA         CLOUDY    57  53  86 W3        30.07S
6HR MIN TEMP:  55; 6HR MAX TEMP:  69;

LANSING*       CLOUDY    59  53  79 CALM      30.06S
JOLIET*        MOCLDY    59  52  77 CALM      30.07S
WAUKEGAN       PTCLDY    56  51  84 CALM      30.04F
6HR MIN TEMP:  56; 6HR MAX TEMP:  61;

DUPAGE AIRPORT PTCLDY    62  52  69 NW8       30.05S
6HR MIN TEMP:  60; 6HR MAX TEMP:  71;

KANKAKEE*      CLEAR     54  51  90 CALM      30.07S
WHEELING       MOCLDY    63  52  67 CALM      30.06S
6HR MIN TEMP:  61; 6HR MAX TEMP:  66;

MORRIS*        CLEAR     57  54  88 W7        30.06S
ROMEOVILLE*    PTCLDY    58  53  81 NW7       30.06S
NORTHERLY ISL    N/A     62  51  67 SE5         N/A
$$

LMZ740>746-290700-
SOUTHERN LAKE MICHIGAN

STATION/POSITION SKY/WX   TEMP    WIND        PRES    VSBY  WAVE
                          AIR SEA DIR/SP/G                  HT/PER
                          (F)     (DEG/KT/KT) (MB)    (MI)  (FT/S)
SOUTHERN BUOY              60 60  250/  6/  8 1017.2F         2/ 6
WAUKEGAN HARBOR            61     170/  5/  5   N/A
HARRISON CRIB              63     130/  5/  7   N/A
BURNHAM HARBOR             62     120/  3/  4   N/A
CALUMET HARBOR             63     120/  2/  2 1016.5S
MICHIGAN CITY              63     340/  4/  6   N/A
MICHIGAN CITY 6N           64 67  360/  4/  6   N/A           4/ 6
ST. JOSEPH                 62 66  350/  4/  8   N/A           3/ 5
$$

ILZ025>027-034>036-040-047-049-050-058-095>099-290700-
WEST-CENTRAL ILLINOIS

CITY           SKY/WX    TMP DP  RH WIND       PRES   REMARKS
QUINCY         CLEAR     59  55  87 CALM      30.14S
GALESBURG*     CLEAR     53  52  96 CALM      30.13R
MACOMB*        CLEAR     53  53  99 CALM      30.15R
JACKSONVILLE*  CLEAR     55  54  95 W3        30.14S
PITTSFIELD*    CLEAR     57  55  91 CALM      30.15S
$$

ILZ028>032-037-038-041>044-048-051>054-059>061-290700-
CENTRAL ILLINOIS

CITY           SKY/WX    TMP DP  RH WIND       PRES   REMARKS
PONTIAC        CLEAR     55  54  94 CALM      30.08S
DECATUR        CLEAR     59  52  77 W6        30.11S
PEORIA         CLEAR     58  52  80 CALM      30.11S
6HR MIN TEMP:  58; 6HR MAX TEMP:  71;

LACON*         CLEAR     55  51  88 CALM      30.09S
LINCOLN*       CLEAR     60  53  78 CALM      30.09S
SPRINGFIELD    CLEAR     55  53  93 W5        30.12S
6HR MIN TEMP:  55; 6HR MAX TEMP:  73;

TAYLORVILLE    CLEAR     52  50  93 CALM      30.12R
$$

ILZ033-039-045-046-055>057-062-063-290700-
EAST-CENTRAL ILLINOIS

CITY           SKY/WX    TMP DP  RH WIND       PRES   REMARKS
CHAMPAIGN      CLEAR     55  52  89 W6        30.10S
DANVILLE*      CLEAR     52  50  92 CALM      30.06S
RANTOUL*       CLEAR     56  51  84 W6        30.09F
MATTOON        CLEAR     56  50  80 W3        30.09F
PARIS*         CLEAR     49  49  97 CALM      30.10R
$$

ILZ079-100>102-290700-
SOUTHWEST ILLINOIS

CITY           SKY/WX    TMP DP  RH WIND       PRES   REMARKS
ALTON          CLEAR     56  56 100 CALM      30.13S
BELLEVILLE     CLEAR     59  54  82 NW3       30.11S
CAHOKIA*       CLEAR     58  54  86 CALM      30.13R
SPARTA*        CLEAR     59  54  82 NW3       30.13R
$$

ILZ064>066-069>071-074>076-080>082-084>086-088>090-092>094-290700-
SOUTH-CENTRAL ILLINOIS

CITY           SKY/WX    TMP DP  RH WIND       PRES   REMARKS
CARBONDALE     CLEAR     59  54  83 CALM      30.10F
6HR MIN TEMP:  58; 6HR MAX TEMP:  75;

CAIRO*         CLEAR     65  58  77 CALM      30.10S
EFFINGHAM*     CLEAR     53  50  87 CALM      30.10F
MARION         CLEAR     59  55  88 CALM      30.11R
MT. VERNON     CLEAR     54  48  82 CALM      30.11F
CENTRALIA*     CLEAR     52  50  92 CALM      30.11S
SALEM*         CLEAR    N/A N/A N/A CALM      30.11F
METROPOLIS*    CLEAR     59  54  83 CALM      30.08F
$$

ILZ067-068-072-073-078-083-087-091-290700-
SOUTHEAST ILLINOIS

CITY           SKY/WX    TMP DP  RH WIND       PRES   REMARKS
LAWRENCEVILLE  CLEAR     57  53  86 NW3       30.09F
FLORA*         CLEAR     54  52  94 CALM      30.10F
FAIRFIELD*     CLEAR     55  54  94 CALM      30.10S
HARRISBURG*    CLEAR     59  55  85 CALM      30.11S
ROBINSON*      CLEAR     55  53  94 CALM      30.10F
CARMI*         CLEAR     57  55  94 NW3       30.09S
$$

ABBREVIATIONS USED IN REMARKS
   TC - TEMPERATURE IN CELSIUS
  WCI - WIND CHILL INDEX
   HX - HEAT INDEX
  VSB - VISIBILITY
$$



USA.gov is the U.S. government's official web portal to all federal, state and local government web resources and services.